ONEWEB-0701, 61607

Orbit data source: Space-Track

ONEWEB-0701, 61607 is a payload satellite owned by Eut. One Web (UK) in LEO that was launched on Sun, 20 Oct 2024 UTC via an FALCON 9 launch vehicle from the Air Force Western Test Range (AFWTR). Payload-class satellites include a variety of spacecraft equipped with specific instruments for various scientific and technological missions. These include communications satellites like Starlink; space stations such as the ISS; scientific satellites like the Hubble; Earth observation satellites from companies like Planet Labs, Umbra, and HawkEye 360; GPS; miniature CubeSats for education and research; and military/defense satellites.

Loading next visibility...
Identifier
61607, 2024-188P
Orbit
LEO
Country
Flag of UKUK
Related business
Manufacturer
One Web
Mission
Operational Commercial Communications
Bus & Motor
ARROW, Unknown motor
Mass
148 kg wet, ~140 kg dry
Launch date (UTC)
2024-10-20 (2 years ago)
Launch vehicle
FALCON 9
Launch site
Air Force Western Test Range (AFWTR)
Object type
Payload
Rocket body
Debris
Shape & HBR
Trap Box + 2 Pan, 6.7 m
Radar Cross Section
3.464 m², Large (>1 m²)

Expand to show TLE details & history
Last TLE update: 6 hours ago

TLE from 6 hours ago
0 ONEWEB-0701
1 61607U 24188P   26208.47432845  .00000241  00000-0  65488-3 0  9999
2 61607  87.8827  28.2368 0002650  91.0918 269.0513 13.10376021 88581
Epoch: 2026-07-27T11:23Z
TLE epoch observation values (Epoch: 2026-07-27T11:23:01.978Z)
Latitude
Longitude
-87.67883°
Altitude
1,224.626 km
Speed
7.242 km/s
True Right ascension
01h 52m 56s
True Declination
0° 00' 00"
Sunlit
Object was in daylight at epoch
Visualization orbit readout
Latitude
Unknown
Longitude
Unknown
Altitude
Unknown
Speed
Unknown
Apparent Right ascension
Unknown
Apparent Declination
Unknown
Sunlit
N/A
Visualization observer readout
Local Sidereal Time
06:23:50
Azimuth
Unknown
Elevation
Unknown
Doppler factor
Unknown
Orbital elements
Apogee altitude
1,220.838 km
Perigee altitude
1,216.811 km
Semi-major axis
7,596.962 km
Eccentricity
0.00027
Inclination
87.8827°
RAAN
28.2368°
Arg. of periapsis
91.0918°
True anomaly
269.02094°
Mean anomaly
269.0513°
Eccentric anomaly
269.03612°
Mean motion
3.27781 °/min
Orbital period
109.83 mins
BSTAR
0.00065488
Loading maneuver chart data...
Computing Atmospheric mass density...
Loading historical data...
Loading historical data...
Loading historical data...
Loading historical data...
Loading historical data...
Loading historical data...
Loading historical data...

Documentation

Showing up to 5 results
|